カタログに戻る

COSMOS 2298

運用中通信LEO
NORAD 23431·PAYLOAD·🇷🇺 Russia

打ち上げ Dec 20, 1994 から Plesetsk Cosmodrome

Loading…

次のパス (今後24時間)

TLE

最新Source: Space-Track

元期: Sep 14, 2026, 07:15 UTC

1 23431U 94083A   26257.30257909  .00000074  00000-0  37705-4 0  9991
2 23431  74.0317 345.6063 0017270 265.8105  94.1071 14.31199932656436

AllMySatでCOSMOS 2298をリアルタイム追跡

Download on the App Store